FW7500 Weather Reports


Display with metric or nautical units.
time (UTC)temp
F
wind
direction
speed
MPH
gust
MPH
rain 1hr
in
rain 24hr
in
rain mn
in
humidity
%
barometer
mb
20260510213050 71 51 2.0 11.0 0.00 0.00 0.00 44 1016.9
20260510211548 72 266 3.0 8.0 0.00 0.00 0.00 44 1016.8
20260510210046 72 359 2.0 6.0 0.00 0.00 0.00 44 1016.7
20260510204549 71 358 3.0 8.0 0.00 0.00 0.00 42 1016.7
20260510203045 72 318 3.0 10.0 0.00 0.00 0.00 52 1016.7
20260510201549 71 27 4.0 10.0 0.00 0.00 0.00 44 1016.7
20260510200046 71 271 3.0 8.0 0.00 0.00 0.00 44 1016.9
20260510194551 72 285 1.0 7.0 0.00 0.00 0.00 51 1016.9
20260510193046 71 326 4.0 9.0 0.00 0.00 0.00 49 1017.1
20260510191555 71 28 6.0 11.0 0.00 0.00 0.00 52 1017.2
20260510190054 70 332 1.0 5.0 0.00 0.00 0.00 46 1016.9
20260510184544 70 292 4.0 10.0 0.00 0.00 0.00 48 1017.0
20260510183048 70 24 3.0 10.0 0.00 0.00 0.00 57 1017.0
20260510181549 70 74 4.0 10.0 0.00 0.00 0.00 57 1017.1
20260510180049 69 24 5.0 11.0 0.00 0.00 0.00 52 1017.2
20260510174557 69 352 3.0 11.0 0.00 0.00 0.00 58 1017.3
20260510173053 68 328 3.0 10.0 0.00 0.00 0.00 57 1017.2
20260510171604 68 360 6.0 10.0 0.00 0.00 0.00 55 1017.4
20260510170054 68 356 3.0 8.0 0.00 0.00 0.00 58 1017.4
20260510164549 68 355 3.0 9.0 0.00 0.00 0.00 61 1017.1
20260510163046 67 347 4.0 11.0 0.00 0.00 0.00 67 1017.2
20260510161550 67 69 3.0 9.0 0.00 0.00 0.00 64 1017.1
20260510160051 67 357 5.0 11.0 0.00 0.00 0.00 67 1016.9
20260510154549 66 29 5.0 10.0 0.00 0.00 0.00 69 1016.8
20260510153045 66 73 2.0 7.0 0.00 0.00 0.00 70 1016.6
20260510151552 65 338 1.0 5.0 0.00 0.00 0.00 72 1016.6
20260510150055 65 7 4.0 6.0 0.00 0.00 0.00 70 1016.4
20260510144603 64 50 4.0 7.0 0.00 0.00 0.00 74 1016.3
20260510143108 64 21 5.0 11.0 0.00 0.00 0.00 75 1016.0
20260510141550 64 19 4.0 7.0 0.00 0.00 0.00 74 1015.8
20260510140051 63 28 3.0 5.0 0.00 0.00 0.00 74 1015.7
20260510134603 63 20 2.0 7.0 0.00 0.00 0.00 75 1015.5
20260510133047 63 79 3.0 5.0 0.00 0.00 0.00 76 1015.5
20260510131549 62 96 4.0 9.0 0.00 0.00 0.00 76 1015.4
20260510130054 62 13 2.0 5.0 0.00 0.00 0.00 78 1015.0
20260510124555 61 25 1.0 3.0 0.00 0.00 0.00 78 1014.5
20260510123049 58 0 0.0 0.0 0.00 0.00 0.00 83 1014.4
20260510121552 57 0 0.0 1.0 0.00 0.00 0.00 83 1014.3
20260510120051 56 221 1.0 2.0 0.00 0.00 0.00 84 1014.1
20260510114543 55 0 0.0 0.0 0.00 0.00 0.00 86 1013.8
20260510113053 55 0 0.0 2.0 0.00 0.00 0.00 84 1013.7
20260510111558 56 0 1.0 2.0 0.00 0.00 0.00 83 1013.5
20260510110047 56 0 0.0 0.0 0.00 0.00 0.00 81 1013.3
20260510104604 56 0 0.0 0.0 0.00 0.01 0.00 81 1013.3
20260510103049 57 0 0.0 2.0 0.00 0.01 0.00 78 1013.4
20260510101549 58 345 0.0 4.0 0.00 0.01 0.00 76 1013.3
20260510100059 59 349 1.0 5.0 0.00 0.01 0.00 73 1012.9
20260510094552 60 360 3.0 7.0 0.00 0.01 0.00 72 1012.4
20260510093052 59 360 4.0 7.0 0.00 0.01 0.00 72 1012.2
20260510091549 59 360 3.0 7.0 0.00 0.01 0.00 73 1012.2
20260510090052 59 360 3.0 8.0 0.00 0.01 0.00 73 1012.1
20260510084550 59 360 5.0 8.0 0.00 0.02 0.00 73 1012.0
20260510083049 59 360 4.0 7.0 0.00 0.02 0.00 73 1012.1
20260510081616 58 360 4.0 8.0 0.00 0.02 0.00 74 1011.7
20260510080055 58 360 3.0 5.0 0.00 0.02 0.00 74 1011.4
20260510074602 58 360 4.0 6.0 0.00 0.03 0.00 74 1011.4
20260510073055 58 360 3.0 6.0 0.00 0.03 0.00 73 1011.4
20260510071552 59 360 3.0 5.0 0.00 0.03 0.00 72 1011.3
20260510070056 59 360 1.0 5.0 0.00 0.03 0.00 72 1011.5
20260510064555 59 360 2.0 4.0 0.00 0.03 0.00 71 1011.5
20260510063051 60 360 2.0 4.0 0.00 0.03 0.00 69 1011.6
20260510061549 61 360 2.0 4.0 0.00 0.03 0.00 69 1011.7
20260510060053 61 360 2.0 6.0 0.00 0.03 0.00 68 1011.7
20260510054548 61 269 3.0 7.0 0.00 0.03 0.00 67 1011.8
20260510053052 62 360 3.0 7.0 0.00 0.03 0.00 67 1011.8
20260510051624 62 254 3.0 6.0 0.00 0.03 0.00 67 1011.9
20260510050052 62 360 4.0 8.0 0.00 0.03 0.00 66 1011.8
20260510044552 62 360 4.0 6.0 0.00 0.03 0.00 67 1011.8
20260510043115 61 360 3.0 5.0 0.00 0.03 0.00 68 1011.7
20260510041551 61 360 3.0 7.0 0.00 0.03 0.00 68 1011.7
20260510040055 61 360 3.0 5.0 0.00 0.03 0.00 67 1011.7
20260510034554 61 360 2.0 5.0 0.00 0.03 0.03 68 1011.7
20260510033051 62 360 2.0 4.0 0.00 0.03 0.03 67 1011.7
20260510031619 62 360 2.0 5.0 0.00 0.03 0.03 66 1011.7
20260510030055 63 360 2.0 4.0 0.00 0.03 0.03 65 1011.5
20260510024550 63 360 2.0 4.0 0.00 0.03 0.03 65 1011.6
20260510023058 64 360 2.0 4.0 0.00 0.03 0.03 64 1011.3
20260510021553 64 360 3.0 5.0 0.00 0.03 0.03 63 1011.0
20260510020051 65 360 4.0 7.0 0.00 0.03 0.03 62 1010.8
20260510014553 64 360 3.0 4.0 0.00 0.03 0.03 62 1010.7
20260510013056 65 360 3.0 4.0 0.00 0.03 0.03 63 1010.5
20260510011608 65 360 2.0 3.0 0.00 0.03 0.03 62 1010.2
20260510010106 67 201 2.0 3.0 0.00 0.03 0.03 60 1010.0
20260510004551 68 360 2.0 3.0 0.00 0.03 0.03 57 1009.8
20260510003104 69 360 2.0 4.0 0.00 0.03 0.03 56 1009.4
20260510001552 70 360 4.0 6.0 0.00 0.03 0.03 53 1009.2
20260510000056 71 360 4.0 8.0 0.00 0.03 0.03 52 1009.1
20260509234548 72 360 4.0 10.0 0.00 0.03 0.03 50 1009.1
20260509233103 72 360 4.0 10.0 0.00 0.03 0.03 49 1009.1
20260509231559 73 360 6.0 12.0 0.00 0.03 0.03 48 1009.0
20260509230050 73 360 5.0 12.0 0.00 0.03 0.03 49 1008.9
20260509224551 73 360 9.0 14.0 0.00 0.03 0.03 47 1008.8
20260509223050 74 360 6.0 9.0 0.00 0.03 0.03 48 1008.9
20260509221549 74 360 4.0 10.0 0.00 0.03 0.03 50 1008.7
20260509220049 74 360 6.0 13.0 0.00 0.03 0.03 48 1008.9
20260509214547 73 360 8.0 14.0 0.00 0.03 0.03 46 1009.0